Location: Spruce Knob
(38.6995°N, 79.5330°W)
Time: 20:05:10
(UTC-04:00)

A-11 Canister half - Pass Details

Date: 29 January 2022
Orbit: 1513 x 1686 km, 47.2° (Epoch: 26 May)

Event Time Altitude Azimuth Distance (km) Brightness Sun altitude
Rises 22:52:41 0° 299° (WNW) 4,668 12.0 -59.9°
Reaches altitude 10° 22:55:52 10° 293° (WNW) 3,676 11.3 -60.4°
Enters shadow 22:56:37 13° 292° (WNW) 3,452 11.1 -60.5°
Maximum altitude 23:04:28 46° 225° (SW) 1,953 - -61.7°
Drops below altitude 10° 23:13:07 10° 155° (SSE) 3,691 - -62.9°
Sets 23:16:20 0° 150° (SSE) 4,688 - -63.4°
